Regional Weather Roundup
Issued by NWS

Home | Current Version | Previous Version | Graphics & Text | Print | Product List | Glossary On
Versions: 1 2 3 4 5 6 7 8 9 10 11 12 13 14 15 16 17 18 19 20 21 22 23 24 25 26 27 28 29 30 31 32 33 34 35 36 37 38 39 40 41 42 43 44 45 46 47 48 49 50
000
ASUS43 KFSD 010102
RWRSD

WEATHER ROUNDUP FOR SOUTH DAKOTA
NATIONAL WEATHER SERVICE SIOUX FALLS SD
800 PM CDT SAT APR 30 2016

NOTE: "FAIR" INDICATES FEW OR NO CLOUDS BELOW 12,000 FEET WITH NO
SIGNIFICANT WEATHER AND/OR OBSTRUCTIONS TO VISIBILITY.


SDZ001>005-009-010-012>017-010200-
NORTHWEST AND NORTH CENTRAL SOUTH DAKOTA

CITY           SKY/WX    TMP DP  RH WIND       PRES   REMARKS
BUFFALO          N/A     52  30  43 NE14      30.14R
FAITH            N/A     51  29  42 NE16      30.15R
MOBRIDGE       CLOUDY    56  31  38 NE17G24   30.13R
$$

SDZ012>016-024>037-041>051-057-063-072>074-010200-
SOUTHWEST AND SOUTH CENTRAL SOUTH DAKOTA

CITY           SKY/WX    TMP DP  RH WIND       PRES   REMARKS
RAPID CTY ARPT CLOUDY    49  32  52 NE16      30.14R
PIERRE         CLOUDY    52  37  56 NE12      30.08R
CUSTER         CLOUDY    38  27  64 N16G24    30.12R
ELLSWORTH AFB  CLOUDY    50  31  48 NE15      30.14R
PHILIP         CLOUDY    51  34  52 NE21      30.11R
PINE RIDGE     LGT RAIN  41  34  76 NE14G21   30.09R
WINNER         LGT RAIN  43  38  82 NE25G35   30.05R
$$

SDZ004>011-016>023-039-040-010200-
NORTHEAST SOUTH DAKOTA

CITY           SKY/WX    TMP DP  RH WIND       PRES   REMARKS
ABERDEEN       CLOUDY    56  32  40 NE12      30.11R
WATERTOWN      CLOUDY    52  36  54 NE15      30.07R
BROOKINGS      LGT RAIN  46  39  76 E10       30.04R
SISSETON         N/A     56  31  38 E15       30.10R
$$

SDZ017-020-022-023-036>040-048>070-010200-
SOUTHEAST SOUTH DAKOTA

CITY           SKY/WX    TMP DP  RH WIND       PRES   REMARKS
SIOUX FALLS    CLOUDY    44  40  85 E17       30.01R
HURON          CLOUDY    51  38  60 NE9       30.07R
MITCHELL       LGT RAIN  45  42  89 NE12      30.06R FOG
YANKTON        CLOUDY    45  41  87 NE25      29.95R
$$

ABBREVIATIONS USED IN REMARKS
   TC - TEMPERATURE IN CELSIUS
  WCI - WIND CHILL INDEX
   HX - HEAT INDEX
  VSB - VISIBILITY




USA.gov is the U.S. government's official web portal to all federal, state and local government web resources and services.